| time (UTC) | temp F | wind direction | speed MPH | gust MPH | rain 1hr in | rain 24hr in | rain mn in | humidity % | barometer mb |
| 20260507115820 | 41 | 333 | 0.0 | 1.0 | 0.00 | 0.00 | 0.00 | 99 | 1008.3 |
| 20260507114821 | 41 | 341 | 1.0 | 2.0 | 0.00 | 0.00 | 0.00 | 99 | 1008.2 |
| 20260507114320 | 41 | 305 | 1.0 | 2.0 | 0.00 | 0.00 | 0.00 | 99 | 1008.3 |
| 20260507113819 | 41 | 42 | 0.0 | 2.0 | 0.00 | 0.00 | 0.00 | 99 | 1008.2 |
| 20260507113319 | 41 | 315 | 1.0 | 2.0 | 0.00 | 0.00 | 0.00 | 99 | 1008.2 |
| 20260507112820 | 41 | 319 | 0.0 | 1.0 | 0.00 | 0.00 | 0.00 | 99 | 1008.2 |
| 20260507111819 | 41 | 319 | 0.0 | 1.0 | 0.00 | 0.00 | 0.00 | 99 | 1008.2 |
| 20260507111320 | 41 | 319 | 0.0 | 1.0 | 0.00 | 0.00 | 0.00 | 99 | 1008.2 |
| 20260507105820 | 40 | 319 | 0.0 | 1.0 | 0.00 | 0.00 | 0.00 | 99 | 1008.1 |
| 20260507105320 | 40 | 319 | 0.0 | 1.0 | 0.00 | 0.00 | 0.00 | 99 | 1008.0 |
| 20260507104320 | 41 | 94 | 0.0 | 2.0 | 0.00 | 0.00 | 0.00 | 98 | 1008.1 |
| 20260507103819 | 41 | 186 | 1.0 | 2.0 | 0.00 | 0.00 | 0.00 | 98 | 1008.1 |
| 20260507103320 | 40 | 2 | 0.0 | 1.0 | 0.00 | 0.00 | 0.00 | 99 | 1008.1 |
| 20260507102819 | 41 | 339 | 0.0 | 3.0 | 0.00 | 0.00 | 0.00 | 98 | 1008.0 |
| 20260507102320 | 41 | 126 | 2.0 | 3.0 | 0.00 | 0.00 | 0.00 | 98 | 1008.1 |
| 20260507101819 | 40 | 113 | 1.0 | 2.0 | 0.00 | 0.00 | 0.00 | 99 | 1008.1 |
| 20260507101319 | 41 | 5 | 0.0 | 0.0 | 0.00 | 0.00 | 0.00 | 99 | 1008.0 |
| 20260507100820 | 41 | 7 | 0.0 | 3.0 | 0.00 | 0.00 | 0.00 | 98 | 1008.0 |
| 20260507100320 | 41 | 166 | 2.0 | 5.0 | 0.00 | 0.00 | 0.00 | 97 | 1007.9 |
| 20260507095320 | 40 | 164 | 2.0 | 3.0 | 0.00 | 0.00 | 0.00 | 99 | 1007.9 |
| 20260507094821 | 40 | 121 | 2.0 | 3.0 | 0.00 | 0.00 | 0.00 | 99 | 1007.8 |
| 20260507094320 | 40 | 116 | 2.0 | 3.0 | 0.00 | 0.00 | 0.00 | 99 | 1007.7 |
| 20260507093820 | 40 | 132 | 3.0 | 5.0 | 0.00 | 0.00 | 0.00 | 99 | 1008.1 |
| 20260507093320 | 40 | 124 | 3.0 | 5.0 | 0.00 | 0.00 | 0.00 | 99 | 1008.4 |
| 20260507092321 | 39 | 130 | 1.0 | 1.0 | 0.00 | 0.00 | 0.00 | 99 | 1008.1 |
| 20260507091820 | 39 | 86 | 1.0 | 2.0 | 0.00 | 0.00 | 0.00 | 99 | 1008.2 |
| 20260507091322 | 38 | 230 | 0.0 | 14.0 | 0.00 | 0.00 | 0.00 | 99 | 1008.0 |